www.pogodaiklimat.ru

Погода и климат >> Архив погоды >> Таиланд >> Хуайпонг Агромет


ПОГОДА в Хуайпонг Агромете

  • Прогноз погоды в Хуайпонг Агромете
  • Монитор погоды в Хуайпонг Агромете

АРХИВ ПОГОДЫ в Хуайпонг Агромете

Время (UTC), дата Ветер
(напр.,м/с)
 
Видим.   Явления Облачность Т
(С)
Тd
(С)
f
(%)
Тe
(С)
Тes
(С)
Комфортность P
(гПа)
Po
(гПа)
Тmin
(С)
Tmax
(С)
R
(мм)
R24
(мм)
S
(см)
09 9.09 Ю 3 10 км 9/3 600 м
[Cu Sc Ac und Cs]
+30.1 +24.4 72 +42 +45 опасность
перегрева
1006.9 1001.8
12 9.09 Ю 3 9000 м дымка 8/3 600 м
[Cu med, cong Ac und Cs]
+28.3 +24.9 82 +41 +41 опасность
перегрева
1007.6 1002.5 +32.5
15 9.09 штиль 0 8000 м дымка 6/3 600 м
[Cu med, cong Ac und Cs]
+27.6 +25.0 86 +40 +40 очень
душно
1009.5 1004.4
18 9.09 штиль 0 8000 м дымка 6/3 600 м
[Cu med, cong Ac und Cs]
+27.5 +24.3 83 +39 +39 очень
душно
1008.7 1003.6
21 9.09 штиль 0 8000 м дымка 6/3 600 м
[Cu med, cong Ac und Cs]
+27.0 +24.7 87 +38 +38 очень
душно
1008.3 1003.2
00 10.09 штиль 0 9000 м дымка 9/3 600 м
[Cu Sc Ac und Cs]
+26.9 +24.1 85 +37 +38 очень
душно
1009.7 1004.6 +26.7
03 10.09 Ю 4 13 км 10/5 600 м
[Sc Ac und Cs]
+29.9 +23.8 70 +41 +44 опасность
перегрева
1011.5 1006.4
06 10.09 Ю 3 14 км 10/6 600 м
[Cu med, cong Ac und Cs]
+32.0 +23.8 62 +43 +47 опасность
перегрева
1009.5 1004.4
09 10.09 Ю 6 14 км 10/4 600 м
[Sc Ac und Cs]
+29.9 +24.0 71 +41 +42 опасность
перегрева
1008.1 1002.9
12 10.09 ЮЗ 1 12 км 10/4 600 м
[Sc Ac lent Ci fib]
+28.3 +23.7 76 +39 +39 очень
душно
1009.7 1004.6 +32.7
15 10.09 Ю 1 11 км 10/4 600 м
[Cu med, cong Ac lent Ci fib]
+28.2 +25.2 84 +41 +41 опасность
перегрева
1012.3 1007.1
18 10.09 штиль 0 8000 м дымка 10/4 600 м
[Cu med, cong Ac lent Ci fib]
+27.9 +25.2 85 +40 +40 очень
душно
1011.4 1006.3
21 10.09 штиль 0 7000 м дымка 10/4 600 м
[Cu med, cong Ac lent Ci fib]
+27.1 +24.9 88 +39 +39 очень
душно
1011.1 1006.0
00 11.09 СЗ 1 12 км 10/4 600 м
[Sc diur, vesp Ac und Cs]
+26.4 +23.6 85 +36 +36 очень
душно
1012.6 1007.4 +25.8
03 11.09 З 5 17 км 6/3 600 м
[Cu hum Ac trans Ci fib]
+32.3 +20.8 51 +40 +44 очень
душно
1014.0 1008.9
06 11.09 ЮЗ 2 17 км 9/4 600 м
[Cu med, cong Ac lent Ci fib]
+34.0 +22.4 51 +43 +51 опасность
перегрева
1011.6 1006.6
09 11.09 Ю 2 13 км 9/4 600 м
[Cu med, cong Ac lent Ci fib]
+31.6 +22.9 60 +42 +44 опасность
перегрева
1009.7 1004.6
12 11.09 СЗ 1 12 км 9/4 600 м
[Cu med, cong Ac lent Ci fib]
+29.1 +22.3 67 +38 +38 очень
душно
1010.8 1005.7 +35.4
15 11.09 ЮЗ 1 11 км 9/4 600 м
[Cu med, cong Ac lent Ci fib]
+28.5 +24.3 78 +40 +40 очень
душно
1013.8 1008.6
18 11.09 штиль 0 8000 м дымка 9/4 600 м
[Cu med, cong Ac lent Ci fib]
+27.4 +24.2 83 +38 +38 очень
душно
1013.0 1007.9
21 11.09 штиль 0 7000 м дымка 9/4 600 м
[Sc Ac lent Cs]
+26.5 +24.3 88 +37 +37 очень
душно
1011.8 1006.6
00 12.09 штиль 0 11 км 10/4 600 м
[Sc Ac und Cs]
+25.7 +23.0 85 +34 +35 очень
душно
1012.5 1007.3 +24.7
03 12.09 Ю 1 12 км 8/3 600 м
[Cu hum Ac und Cs]
+30.7 +23.6 66 +42 +50 опасность
перегрева
1013.3 1008.1
06 12.09 ЮЗ 4 12 км 8/3 600 м
[Cu hum Ac und Cs]
+33.0 +24.5 61 +46 +52 опасность
перегрева
1011.1 1006.0
09 12.09 З 5 13 км 5/0
[Ac trans Ci fib]
+33.9 +18.8 41 +39 +42 очень
душно
1008.8 1003.7
12 12.09 ЮЗ 2 10 км 8/3 600 м
[Cu med, cong Ac trans Ci fib]
+31.0 +20.5 54 +38 +38 очень
душно
1009.6 1004.5 +35.3
15 12.09 ЮЗ 3 10 км 8/3 600 м
[Cu med, cong Ac trans Cs]
+28.7 +23.3 73 +39 +39 очень
душно
1011.8 1006.6
18 12.09 З 1 8000 м дымка 9/3 600 м
[Cu hum Ac trans Cs]
+28.2 +24.0 78 +39 +39 очень
душно
1010.7 1005.5
21 12.09 штиль 0 8000 м дымка 6/0
[Ac trans Cs]
+26.6 +23.5 83 +36 +36 очень
душно
1009.1 1003.9
00 13.09 З 4 11 км 9/3 600 м
[Sc Ac und Cs]
+27.0 +22.9 78 +36 +36 очень
душно
1010.4 1005.2 +26.1
03 13.09 СЗ 6 12 км 8/3 600 м
[Cu hum Ac trans Cs]
+31.2 +20.9 54 +38 +41 очень
душно
1011.1 1006.0
06 13.09 З 7 12 км 8/3 600 м
[Cu med, cong Ac und Cs]
+33.1 +21.1 49 +40 +43 очень
душно
1008.6 1003.5
09 13.09 З 7 12 км 8/3 600 м
[Cu med, cong Ac und Ci fib]
+33.2 +20.7 48 +40 +41 очень
душно
1006.1 1001.1
12 13.09 ЮЗ 1 10 км 8/3 600 м
[Cu hum Ac und Ci fib]
+29.0 +23.9 74 +40 +40 очень
душно
1007.2 1002.1 +34.6
15 13.09 З 3 10 км 9/3 600 м
[Sc Ac und Cs]
+28.5 +24.5 79 +40 +40 очень
душно
1008.7 1003.6
18 13.09 З 2 10 км 9/3 600 м
[Sc Ac lent Cs]
+28.3 +23.2 74 +38 +38 очень
душно
1007.4 1002.3
21 13.09 З 2 8000 м слаб. дождь 10/5 600 м
[Cb cap Ac As]
+26.9 +24.1 85 +37 +37 очень
душно
1007.4 1002.3 0.8
00 14.09 З 1 10 км {дождь} 10/3 600 м
[Sc Ac As Cs]
+25.8 +23.9 89 +35 +36 очень
душно
1008.1 1002.9 +25.6 1
03 14.09 СЗ 6 11 км 10/3 600 м
[Cu Sc Ac und Cs]
+28.8 +24.3 77 +40 +42 очень
душно
1009.1 1004.0
06 14.09 З 9 11 км 10/3 600 м
[Cu Sc Ac und Cs]
+29.8 +23.1 67 +40 +40 очень
душно
1007.0 1001.9
09 14.09 ЮЗ 3 11 км 10/3 600 м
[Cu Sc Ac und Cs]
+30.0 +24.7 73 +43 +45 опасность
перегрева
1005.2 1000.1
12 14.09 Ю 1 10 км 8/3 600 м
[Cu Sc Ac und Cs]
+28.3 +24.1 78 +39 +39 очень
душно
1006.7 1001.5 +31.5
15 14.09 СЗ 1 9000 м слаб. дождь 10/4 600 м
[Cu Sc Ac und Cs]
+27.4 +25.1 87 +39 +39 очень
душно
1008.8 1003.6 0.1
18 14.09 штиль 0 8000 м слаб. дождь 10/5 600 м
[Sc Ac As Cs]
+26.7 +25.3 92 +39 +39 очень
душно
1007.7 1002.6 3
21 14.09 штиль 0 8000 м дымка {дождь} 10/4 600 м
[Cu Sc Ac As Cs]
+26.2 +24.9 93 +37 +37 очень
душно
1006.5 1001.3 0.6
00 15.09 З 4 8000 м слаб. дождь 10/6 600 м
[Sc Ac As Cs]
+25.2 +24.2 94 +35 +35 очень
душно
1007.8 1002.6 +25.2 0.9
03 15.09 ЮЗ 2 11 км {дождь} 8/3 600 м
[Cu Sc Ac und Cs]
+29.2 +25.1 79 +42 +49 опасность
перегрева
1008.3 1003.2 5
06 15.09 З 7 9000 м гроза, ливневой дождь 10/4 300 м
[Cb cap Ac As Cs]
+27.7 +24.5 83 +39 +41 очень
душно
1006.4 1001.3 5
09 15.09 З 1 7000 м гроза, ливневой дождь 10/6 600 м
[Cb cap Ac As Cs]
+27.2 +25.3 89 +39 +41 очень
душно
1005.1 1000.0 2
12 15.09 З 2 8000 м дымка {гроза, дождь} 10/3 600 м
[Cu Sc Ac As Cs]
+26.3 +25.0 93 +38 +38 очень
душно
1005.9 1000.8 +30.5 2
15 15.09 штиль 0 8000 м слаб. дождь 10/4 600 м
[Cu Sc Ac As Cs]
+25.8 +24.6 93 +36 +36 очень
душно
1007.7 1002.5 0.4
18 15.09 штиль 0 7000 м дымка {дождь} 10/3 600 м
[Cu Sc Ac und Cs]
+25.8 +24.1 90 +36 +36 очень
душно
1007.0 1001.8 0.0
21 15.09 штиль 0 8000 м дымка 10/3 600 м
[Cu Sc Ac und Cs]
+25.8 +24.1 90 +36 +36 очень
душно
1006.0 1000.9
00 16.09 штиль 0 10 км 10/3 600 м
[Cu Sc Ac und Cs]
+25.4 +24.7 96 +36 +36 очень
душно
1007.4 1002.2 +24.9
03 16.09 Ю 2 9000 м слаб. дождь 10/6 600 м
[Sc Ac As Cs]
+26.3 +25.3 94 +38 +41 очень
душно
1008.8 1003.6 16

 

Местоположение метеостанции Хуайпонг Агромет (Таиланд): широта 12.73 долгота 101.13 высота над уровнем моря 45 м.

В архиве по умолчанию представлена погода в Хуайпонг Агромете за последнюю неделю. Архивные данные за месяц целиком и за предыдущие месяцы, начиная с января 2011 года, Вы можете получить, выбрав интересующий диапазон дат из раскрывающегося списка и нажав кнопку "Ввод!".


*Определитесь, кто Вы:
робот инопланетянин человек

Внимание! Время в таблицах - всемирное. Для получения местного времени необходимо прибавить поправку, которая равна 7 ч.

Смотрите также архив погоды в соседних городах и на ближайших метеорологических станциях:

Погода в Саттахипе (Таиланд) (17 км)
Погода в Районге (Таиланд) (26 км)
Погода в Паттайе (Таиланд) (36 км)
Погода на Ко Сичан (Таиланд) (61 км)
Погода в Чонбури (Таиланд) (73 км)
Погода в Ратбури (Таиланд) (73 км)
Погода в Бангкок Пилот (Таиланд) (92 км)
Погода в Чаченгсау (Таиланд) (92 км)
Погода в Самутрудкан Агромете (Таиланд) (97 км)
Погода в Чантабури (Таиланд) (107 км)

Пояснения к столбцам:

Ветер - указаны скорость ветра в м/с - средняя за 10 мин, порывы в срок и между сроками (в фигурных скобках) и направление, откуда дует ветер: С - северный, СВ - северо-восточный, В - восточный, ЮВ - юго-восточный, Ю - южный, ЮЗ - юго-западный, З - западный, СЗ - северо-западный.
Видимость - горизонтальная дальность видимости в метрах или километрах. При видимости от 1 до 10 км при отсутствии осадков обычно наблюдается дымка, при ухудшении видимости до 1 км и менее - туман. В сухую погоду видимость может ухудшаться дымом, пылью или мглою.
Явления - указаны атмосферные явления, наблюдавшиеся в срок или в последний час перед сроком; фигурными скобками обозначены явления, наблюдавшиеся между сроками (за 1-3 часа до срока); квадратными скобками обозначены град или гололедные отложения с указанием их диаметра в мм.
Облачность - указаны через наклонную черту общая и нижняя облачность в баллах и высота нижней границы облаков в метрах; квадратными скобками обозначены формы облаков: Ci - перистые, Cs - перисто-слоистые, Cc - перисто-кучевые, Ac - высококучевые, As - высокослоистые, Sc - слоисто-кучевые, Ns - слоисто-дождевые, Cu - кучевые, Cb - кучево-дождевые. Подробнее классификацию облаков см. в Атласе облаков (PDF).
T - Температура воздуха - температура, измеренная на высоте 2 м над землей.
Td - Температура точки росы - температура, при понижении до которой содержащийся в воздухе водяной пар достигнет насыщения.
f - Относительная влажность воздуха - влажноcть воздуха, измеренная на высоте 2 м над землей.
Te - Эффективная температура - температура, которую ощущает одетый по сезону человек в тени. Характеристика душности погоды. При расчете учитывается влияние влажности воздуха и скорости ветра на теплоощущения человека.
Tes - Эффективная температура на солнце - температура, которую ощущает человек, с поправкой на солнечный нагрев. Характеристика знойности погоды. Зависит от высоты солнца над горизонтом, облачности и скорости ветра. Ночью, в пасмурную погоду, а также при ветре 12 м/с и более поправка равна нулю.
P - Атмосферное давление - приведенное к уровню моря атмосферное давление.
Po - Атмосферное давление - измеренное на уровне метеостанции атмосферное давление.
Tmin - Минимальная температура - минимум температуры воздуха на высоте 2 м над землей.
Tmax - Максимальная температура - максимум температуры воздуха на высоте 2 м над землей.
R - Количество осадков - Количество выпавших осадков за период времени, мм. При наведении курсора мыши на число - период времени, за который выпало указанное количество осадков.
R24 - Количество осадков - Количество выпавших осадков за 24 часа, мм.
S - Снежный покров - Высота снежного покрова, см. При наведении курсора мыши на число - состояние снежного покрова и степень покрытия местности в баллах.